Location: Go?cza
(50.3372°N, 19.9313°E)
Time: 13:47:19
(UTC+00:00)

CZ-2C R/B - Pass Details

Date: 09 August 2024
Orbit: 666 x 777 km, 98.4° (Epoch: 06 September)

Event Time Altitude Azimuth Distance (km) Brightness Sun altitude
Rises 01:15:13 0° 25° (NNE) 3,260 7.4 -16.2°
Reaches altitude 10° 01:18:03 10° 40° (NE) 2,335 6.4 -15.9°
Maximum altitude 01:22:02 22° 91° (E) 1,644 4.7 -15.6°
Drops below altitude 10° 01:26:00 10° 142° (SE) 2,324 4.9 -15.1°
Sets 01:28:48 0° 157° (SSE) 3,240 5.5 -14.9°
